Weather Roundup
Issued by NWS

Home | Current Version | Previous Version | Text Only | Print | Product List | Glossary On
Versions: 1 2 3 4 5 6 7 8 9 10 11 12 13 14 15 16 17 18 19 20 21 22 23 24 25 26 27 28 29 30 31 32 33 34 35 36 37 38 39 40 41 42 43 44 45 46 47 48 49 50
000
NZUS93 KARX 070510
HRRWXR

CURRENT HOURLY OBSERVATIONS ACROSS
MUCH OF THE UPPER MISSISSIPPI VALLEY
NATIONAL WEATHER SERVICE LA CROSSE WI
1200 AM CDT THU MAY 07 2015


...SOUTHEAST MINNESOTA...


CITY           SKY/WX    TMP DP  RH WIND       PRES   REMARKS
ROCHESTER      MOCLDY    63  57  81 S15       29.93S
ROCHESTER/MAYO FAIR      65  59  79 SE9G18    29.92S
WINONA         CLOUDY    63  59  88 SE5       29.94S
AUSTIN         PTCLDY    63  57  82 SE8       29.90S
ALBERT LEA     CLEAR     64  59  82 SE15      29.87F
DODGE CENTER   PTCLDY    63  59  88 SE12      29.90S
PRESTON        MOCLDY    62  56  81 S10       29.94S
OWATONNA       CLEAR     64  57  77 SE14G20   29.88S
FARIBAULT      PTCLDY    66  59  77 SE13      29.87S
$$

...ELSEWHERE IN MINNESOTA...


CITY           SKY/WX    TMP DP  RH WIND       PRES   REMARKS
MINNEAPOLIS    MOCLDY    67  59  75 SE14      29.87R
INTNL FALLS    CLOUDY    57  55  93 SE8       29.84F
DULUTH         CLOUDY    52  42  69 E12       29.91F
RED WING       CLOUDY    66  61  82 SE10      29.90R
REDWOOD FALLS  MOCLDY    65  58  78 SE17      29.76F
MANKATO        CLEAR     64  57  77 SE17      29.83F
WORTHINGTON    CLOUDY    63  55  77 SE23G29   29.75S
FAIRMONT       MOCLDY    64  36  34 SE20      29.80F
$$

...SOUTHWEST WISCONSIN...


CITY           SKY/WX    TMP DP  RH WIND       PRES   REMARKS
LA CROSSE      CLOUDY    65  60  84 CALM      29.95S
PRAIRIE DU CHI CLOUDY    65  57  76 E6        29.97S
BOSCOBEL       CLOUDY    65  59  81 N5        29.99S
LONE ROCK      CLOUDY    66  60  81 E7        30.00S
PLATTEVILLE    CLOUDY    64  60  85 E9        30.00S
FORT MC COY    CLOUDY    63  60  92 E3        29.99S
CAMP DOUGLAS   MOCLDY    65  65 100 SE8       30.00S
VIROQUA        CLOUDY    65  58  79 SE8       30.00S
WIS DELLS      CLOUDY    63  58  84 E3        30.02F HAZE
$$

...ELSEWHERE IN WISCONSIN...


CITY           SKY/WX    TMP DP  RH WIND       PRES   REMARKS
MILWAUKEE      FOG       46  45  96 CALM      30.09F VSB 1/8
MADISON        PTCLDY    61  56  83 SE8       30.04R HAZE
GREEN BAY      PTCLDY    52  50  93 E5        30.08S FOG
EAU CLAIRE     CLOUDY    63  59  87 SE8       29.94F
BLACK RVR FLS  CLOUDY    64  63  97 CALM      29.98S
MEDFORD        CLOUDY    61  58  90 SE7       30.02F
WAUSAU         MOCLDY    60  56  86 SE8       30.03R
WIS RAPIDS     PTCLDY    63  56  78 SE6       30.04S
MARSHFIELD     MOCLDY    63  57  81 E7        30.02F
RICE LAKE      CLOUDY    63  59  88 SE12      29.95S
$$

...NORTHEAST IOWA...


CITY           SKY/WX    TMP DP  RH WIND       PRES   REMARKS
DECORAH        CLOUDY    63  59  88 SE8       29.94F
MASON CITY     PTCLDY    63  60  90 SE15      29.89F
CHARLES CITY   MOCLDY    63  63 100 SE13      29.92S
OELWEIN        CLOUDY    64  59  82 SE12      29.95S
$$

...ELSEWHERE IN IOWA...


CITY           SKY/WX    TMP DP  RH WIND       PRES   REMARKS
DES MOINES     CLOUDY    69  58  67 SE17      29.86F
IOWA CITY      CLOUDY    65  61  87 SE6       29.97F
FORT DODGE     MOCLDY    66  55  68 SE13G20   29.82F
$$

...NORTHERN ILLINOIS...


CITY           SKY/WX    TMP DP  RH WIND       PRES   REMARKS
CHICAGO-OHARE  PTCLDY    56  50  80 E3        30.06F
CHICAGO-MIDWAY CLEAR     59  51  75 CALM      30.07S
MOLINE         MOCLDY    65  59  81 E8        29.99S
ROCKFORD       PTCLDY    62  56  80 S6        30.06R HAZE
PEORIA         CLEAR     73  54  51 S8        30.03R
$$

NOTE: "FAIR" INDICATES FEW OR NO CLOUDS BELOW 12,000 FEET WITH NO
SIGNIFICANT WEATHER AND/OR OBSTRUCTIONS TO VISIBILITY. WIND
SPEEDS ARE IN MILES-PER-HOUR.



USA.gov is the U.S. government's official web portal to all federal, state and local government web resources and services.